Regional Weather Roundup
Issued by NWS

Home | Current Version | Previous Version | Graphics & Text | Print | Product List | Glossary On
Versions: 1 2 3 4 5 6 7 8 9 10 11 12 13 14 15 16 17 18 19 20 21 22 23 24 25 26 27 28 29 30 31 32 33 34 35 36 37 38 39 40 41 42 43 44 45 46 47 48 49 50
000
ASUS43 KDMX 252107
RWRIA

WEATHER ROUNDUP FOR IOWA
NATIONAL WEATHER SERVICE DES MOINES IA
300 PM CST TUE NOV 25 2014

NOTE: "FAIR" INDICATES FEW OR NO CLOUDS BELOW 12,000 FEET WITH NO
SIGNIFICANT WEATHER AND/OR OBSTRUCTIONS TO VISIBILITY.

* - THESE STATIONS ARE NOT NWS STATIONS...THUS NOT UNDER NWS
QUALITY CONTROL.  THEY ALSO DO NOT REPORT WEATHER SUCH
AS PRECIPITATION OR FOG.

IAZ001>003-012>014-020>022-031>034-043>046-252200-
   NORTHWEST IOWA

CITY           SKY/WX    TMP DP  RH WIND       PRES   REMARKS
CARROLL *      SUNNY     36  16  44 S12       30.01F WCI  27
CHEROKEE *     MOSUNNY   36  18  48 S10       29.96F WCI  28
DENISON *      SUNNY     39  18  41 S10       29.97F WCI  32
LE MARS *      SUNNY     37  21  52 S14       29.94F WCI  29
ORANGE CITY *  SUNNY     37  19  48 S9        29.93F WCI  31
SHELDON *      SUNNY     37  18  44 S15       29.92F WCI  28
SIOUX CITY     MOSUNNY   42  25  50 S10       29.94F
SPENCER        SUNNY     36  15  42 S12       29.96F WCI  28
STORM LAKE *   SUNNY     36  16  44 S14       29.97F WCI  27
$$

IAZ055>058-069>071-079>083-090>094-252200-
   SOUTHWEST IOWA

CITY           SKY/WX    TMP DP  RH WIND       PRES   REMARKS
ATLANTIC *     SUNNY     37  18  44 S10       30.01F WCI  30
AUDUBON *      SUNNY     37   9  30 S12       30.02F WCI  30
CLARINDA *     SUNNY     41  19  42 S10       30.06F
COUNCIL BLFS * SUNNY     41  21  45 S9G16     29.99F
CRESTON *      SUNNY     36  14  41 SW9       30.05F WCI  29
HARLAN  *      SUNNY     37  18  44 S13       30.04S WCI  29
LAMONI         SUNNY     37  13  37 SW10      30.08F WCI  30
RED OAK *      SUNNY     41  18  38 S14       30.03F
SHENANDOAH *   SUNNY     43  21  42 S14       30.04F
$$

IAZ047>049-059>061-072>074-084-252200-
   CENTRAL IOWA

CITY           SKY/WX    TMP DP  RH WIND       PRES   REMARKS
AMES           SUNNY     33  10  38 SW7       30.07F WCI  27
ANKENY *       SUNNY     36   7  30 S5        30.08S WCI  32
CHARITON *     SUNNY     36  12  38 S8        30.08S WCI  29
DES MOINES     MOSUNNY   37   6  27 VRB5      30.07F WCI  33
GRINNELL*      SUNNY     32  18  55 SW7       30.09S WCI  26
KNOXVILLE *    SUNNY     36   9  32 SW5       30.08S WCI  32
MARSHALLTOWN   SUNNY     29  17  61 SW5       30.08F WCI  24
PELLA *        SUNNY     36  12  38 SW3       30.11S
PERRY *          N/A     37  12  35 S8        30.04F WCI  31
$$

IAZ004>006-015-016-023>025-035-036-252200-
   NORTH CENTRAL IOWA

CITY           SKY/WX    TMP DP  RH WIND       PRES   REMARKS
ALGONA *       SUNNY     32  12  43 S9G15     30.01F WCI  24
CLARION *      SUNNY     32  10  40 S7        30.04F WCI  26
ESTHERVILLE    MOSUNNY   33   8  35 S12       29.97F WCI  24
FORT DODGE *   MOSUNNY   34  10  37 S9        30.03F WCI  26
MASON CITY     PTSUNNY   28  12  51 S5        30.05F WCI  23
FOREST CITY *  SUNNY     30  14  51 S7        30.02F WCI  23
IOWA FALLS *     N/A     30  16  55 S5        30.06F WCI  25
$$

IAZ007>011-017>019-026>030-037>042-050>054-066-252200-
   NORTHEAST IOWA

CITY           SKY/WX    TMP DP  RH WIND       PRES   REMARKS
CEDAR RAPIDS   SUNNY     27  20  75 W7        30.11R WCI  19
CHARLES CITY * SUNNY     23  14  68 S5        30.08S WCI  17
CLINTON *      SUNNY     23  16  74 SW7       30.16S WCI  15
DECORAH *      MOSUNNY   21  12  68 VRB5      30.06F WCI  15
DUBUQUE        SUNNY     23  16  74 W8        30.10R WCI  14
MONTICELLO *   SUNNY     25  18  74 W7        30.12R WCI  17
OELWEIN *      SUNNY     23  14  68 W3        30.09F
WATERLOO       SUNNY     24  15  68 W3        30.10F
$$

IAZ064-065-067-068-078-252200-
   EAST CENTRAL IOWA

CITY           SKY/WX    TMP DP  RH WIND       PRES   REMARKS
DAVENPORT      SUNNY     24  15  68 W8        30.14S WCI  15
IOWA CITY      SUNNY     29  21  72 SW7       30.14S WCI  22
MT. PLEASANT * SUNNY     30  21  69 SW6       30.15R WCI  24
MUSCATINE *    SUNNY     28  19  69 SW6       30.16R WCI  22
QUAD CITIES    SUNNY     26  17  68 SW8       30.15R WCI  18
$$

IAZ062-063-075>077-085>089-095>099-252200-
   SOUTHEAST IOWA

CITY           SKY/WX    TMP DP  RH WIND       PRES   REMARKS
BURLINGTON     SUNNY     30  21  69 W6        30.14R WCI  24
FAIRFIELD *    SUNNY     32  21  64 S7        30.12S WCI  26
FORT MADISON * SUNNY     34  25  69 W7        30.14S WCI  28
KEOKUK *       SUNNY     34  23  64 W8        30.13F WCI  27
OSKALOOSA *      N/A     34  16  47 CALM      30.11S
CENTERVILLE *  SUNNY     36  14  41 S5        30.11F WCI  32
OTTUMWA        SUNNY     34  16  47 W5        30.10F WCI  30
WASHINGTON *   SUNNY     30  23  74 SW7       30.14R WCI  23
$$

ABBREVIATIONS USED IN REMARKS
   TC - TEMPERATURES IN CELSIUS
  WCI - WIND CHILL INDEX
   HX - HEAT INDEX
  VSB - VISIBILITY
$$




USA.gov is the U.S. government's official web portal to all federal, state and local government web resources and services.